Frederick, MD

1:39 AM EST on February 12, 2016 (GMT -0500)
Frederick Municipal

Weather History for KFDK - May, 2013

Change the Weather History Date:

Sunday, May 12, 2013

  Actual Average (KHGR) Record (KHGR)
Temperature  
Mean Temperature 53 °F 61 °F  
Max Temperature 62 °F 71 °F 86 °F (2000)
Min Temperature 42 °F 51 °F 41 °F (2008)
Degree Days  
Heating Degree Days 12 6  
Month to date heating degree days 83  
Since 1 July heating degree days 5097  
Cooling Degree Days 0 1  
Month to date cooling degree days 12  
Year to date cooling degree days 27  
Growing Degree Days 3 (Base 50)    
Moisture  
Dew Point 41 °F    
Average Humidity 61    
Maximum Humidity 87    
Minimum Humidity 34    
Precipitation  
Precipitation 0.00 in 0.13 in 0.80 in (2008)
Month to date precipitation 1.44  
Year to date precipitation 13.61  
Sea Level Pressure  
Sea Level Pressure 29.89 in    
Wind  
Wind Speed 7 mph (WNW)    
Max Wind Speed 21 mph    
Max Gust Speed 29 mph    
Visibility 10 miles    
Events      
T = Trace of Precipitation, MM = Missing Value Source: NWS Daily Summary

Daily Weather History Graph

Daily Weather History Graph

Search for Another Location

Airport or City:

Trip Planner

Search our weather history database for the weather conditions in past years. The results will help you decide how hot, cold, wet, or windy it might be!

Date:

Astronomy

May. 12, 2013 Rise Set
Actual Time 5:58 AM EDT 8:13 PM EDT
Civil Twilight 5:28 AM EDT 8:44 PM EDT
Nautical Twilight 4:51 AM EDT 9:21 PM EDT
Astronomical Twilight 4:10 AM EDT 10:01 PM EDT
Moon 7:51 AM EDT 10:39 PM EDT
Length of Visible Light 15h 15m
Length of Day
14h 15m
Waxing Crescent, 6% of the Moon is Illuminated
May 12
Waxing Crescent
May 18
First Quarter
May 25
Full
May 31
Last Quarter
Jun 8
New

Hourly Weather History & Observations

Time (EDT) Temp. Windchill Dew Point Humidity Pressure Visibility Wind Dir Wind Speed Gust Speed Precip Events Conditions
12:05 AM 60.8 °F - 55.4 °F 82% 29.81 in 10.0 mi Calm Calm - N/A   Overcast
12:25 AM 62.6 °F - 53.6 °F 72% 29.81 in 10.0 mi WNW 9.2 mph - N/A   Mostly Cloudy
12:45 AM 60.8 °F - 53.6 °F 77% 29.81 in 10.0 mi NW 4.6 mph - N/A   Overcast
1:05 AM 60.8 °F - 51.8 °F 72% 29.81 in 10.0 mi WNW 6.9 mph - N/A   Overcast
1:30 AM 60.8 °F - 51.8 °F 72% 29.80 in 10.0 mi West 8.1 mph - N/A   Overcast
1:50 AM 59.0 °F - 51.8 °F 77% 29.79 in 10.0 mi Calm Calm - N/A   Scattered Clouds
2:10 AM 59.0 °F - 50.0 °F 72% 29.79 in 10.0 mi NW 5.8 mph - N/A   Clear
2:30 AM 60.8 °F - 50.0 °F 68% 29.79 in 10.0 mi WNW 8.1 mph - N/A   Clear
2:50 AM 59.0 °F - 50.0 °F 72% 29.79 in 10.0 mi NW 10.4 mph - N/A   Clear
3:10 AM 59.0 °F - 50.0 °F 72% 29.79 in 10.0 mi NW 8.1 mph 17.3 mph N/A   Clear
3:30 AM 57.2 °F - 48.2 °F 72% 29.79 in 10.0 mi WNW 10.4 mph 17.3 mph N/A   Clear
3:50 AM 57.2 °F - 48.2 °F 72% 29.80 in 10.0 mi WNW 11.5 mph - N/A   Clear
4:10 AM 55.4 °F - 46.4 °F 72% 29.80 in 10.0 mi WNW 13.8 mph 18.4 mph N/A   Clear
4:30 AM 55.4 °F - 46.4 °F 72% 29.80 in 10.0 mi NW 11.5 mph 20.7 mph N/A   Clear
4:50 AM 55.4 °F - 44.6 °F 67% 29.80 in 10.0 mi NW 4.6 mph - N/A   Clear
5:10 AM 55.4 °F - 44.6 °F 67% 29.81 in 10.0 mi WNW 6.9 mph - N/A   Clear
5:30 AM 53.6 °F - 46.4 °F 77% 29.82 in 10.0 mi Calm Calm - N/A   Clear
5:50 AM 53.6 °F - 46.4 °F 77% 29.82 in 10.0 mi Calm Calm - N/A   Clear
6:10 AM 50.0 °F - 46.4 °F 87% 29.82 in 10.0 mi South 3.5 mph - N/A   Clear
6:30 AM 51.8 °F - 46.4 °F 82% 29.82 in 10.0 mi Calm Calm - N/A   Clear
6:45 AM 50.0 °F - 46.4 °F 87% 29.82 in 10.0 mi West 3.5 mph - N/A   Clear
6:55 AM 51.8 °F - 46.4 °F 82% 29.83 in 10.0 mi WNW 4.6 mph - N/A   Scattered Clouds
7:50 AM 55.4 °F - 42.8 °F 63% 29.86 in 10.0 mi WNW 12.7 mph - N/A   Mostly Cloudy
8:50 AM 55.4 °F - 42.8 °F 63% 29.87 in 10.0 mi North 16.1 mph 21.9 mph N/A   Scattered Clouds
9:50 AM 57.2 °F - 44.6 °F 63% 29.89 in 10.0 mi SSW 13.8 mph 21.9 mph N/A   Scattered Clouds
10:45 AM 57.2 °F - 35.6 °F 44% 29.91 in 10.0 mi NNW 16.1 mph 25.3 mph N/A   Scattered Clouds
11:50 AM 57.2 °F - 32.0 °F 38% 29.91 in 10.0 mi WNW 17.3 mph 28.8 mph N/A   Clear
12:50 PM 59.0 °F - 32.0 °F 36% 29.91 in 10.0 mi WNW 20.7 mph 28.8 mph N/A   Scattered Clouds
1:48 PM 59.0 °F - 32.0 °F 36% 29.91 in 10.0 mi WNW 16.1 mph 27.6 mph N/A   Clear
2:45 PM 60.8 °F - 33.8 °F 36% 29.92 in 10.0 mi WNW 18.4 mph 27.6 mph N/A   Scattered Clouds
3:56 PM 60.8 °F - 32.0 °F 34% 29.92 in 10.0 mi WNW 19.6 mph 27.6 mph N/A   Scattered Clouds
4:59 PM 60.8 °F - 32.0 °F 34% 29.94 in 10.0 mi WNW 12.7 mph 21.9 mph N/A   Scattered Clouds
6:45 PM 59.0 °F - 32.0 °F 36% 29.95 in 10.0 mi West 12.7 mph 21.9 mph N/A   Scattered Clouds
6:59 PM 59.0 °F - 32.0 °F 36% 29.95 in 10.0 mi WNW 10.4 mph 16.1 mph N/A   Scattered Clouds
7:55 PM 53.6 °F - 32.0 °F 44% 29.98 in 10.0 mi WNW 8.1 mph - N/A   Scattered Clouds
8:50 PM 51.8 °F - 32.0 °F 47% 30.00 in 10.0 mi WNW 6.9 mph - N/A   Clear
9:10 PM 50.0 °F - 30.2 °F 47% 30.02 in 10.0 mi WNW 8.1 mph - N/A   Clear
9:30 PM 51.8 °F - 30.2 °F 44% 30.03 in 10.0 mi WNW 11.5 mph 17.3 mph N/A   Clear
9:50 PM 51.8 °F - 30.2 °F 44% 30.04 in 10.0 mi WNW 8.1 mph - N/A   Clear
10:10 PM 50.0 °F - 30.2 °F 47% 30.05 in 10.0 mi West 6.9 mph - N/A   Scattered Clouds
10:30 PM 48.2 °F - 32.0 °F 54% 30.05 in 10.0 mi Calm Calm - N/A   Scattered Clouds
10:50 PM 48.2 °F - 32.0 °F 54% 30.06 in 10.0 mi Calm Calm - N/A   Scattered Clouds
11:10 PM 44.6 °F 43.1 °F 33.8 °F 66% 30.06 in 10.0 mi WSW 3.5 mph - N/A   Clear
11:30 PM 44.6 °F - 33.8 °F 66% 30.06 in 10.0 mi Calm Calm - N/A   Clear
11:50 PM 42.8 °F 41.1 °F 33.8 °F 70% 30.06 in 10.0 mi WNW 3.5 mph - N/A   Clear